EW2549 Weather Reports


time (UTC)temp
C
wind
direction
speed
KPH
gust
KPH
rain 1hr
cm
rain 24hr
cm
rain mn
cm
humidity
%
barometer
mb
20260510064514 9 59 0.0 0.0 0.00 0.00 0.00 73 1014.7
20260510063006 9 59 0.0 0.0 0.00 0.00 0.00 73 1014.9
20260510061502 9 59 0.0 0.0 0.00 0.00 0.00 72 1014.9
20260510060057 9 59 0.0 0.0 0.00 0.00 0.00 71 1014.7
20260510054600 9 59 0.0 0.0 0.00 0.00 0.00 70 1014.7
20260510053056 10 60 0.0 0.0 0.00 0.00 0.00 69 1014.8
20260510051606 10 60 0.0 0.0 0.00 0.00 0.00 69 1014.6
20260510050058 10 59 0.0 0.0 0.00 0.00 0.00 70 1014.8
20260510044607 10 59 0.0 0.0 0.00 0.00 0.00 69 1015.0
20260510043054 10 59 0.0 0.0 0.00 0.00 0.00 68 1014.8
20260510041605 10 17 0.0 0.0 0.00 0.00 0.00 68 1014.8
20260510040053 10 24 0.0 0.0 0.00 0.00 0.00 68 1014.8
20260510034558 10 24 0.0 0.0 0.00 0.00 0.00 67 1014.6
20260510033050 10 24 0.0 8.0 0.00 0.00 0.00 67 1014.5
20260510031556 10 344 0.0 14.5 0.00 0.00 0.00 67 1014.2
20260510030055 10 319 1.6 19.3 0.00 0.00 0.00 67 1013.5
20260510024548 10 323 4.8 25.7 0.00 0.00 0.00 68 1012.3
20260510021535 11 355 4.8 22.5 0.00 0.00 0.00 67 1010.8
20260510020034 11 344 6.4 22.5 0.00 0.00 0.00 65 1010.4
20260510014532 12 92 1.6 27.4 0.00 0.00 0.00 63 1009.9
20260510013029 12 345 4.8 22.5 0.00 0.00 0.00 60 1009.0
20260510011528 13 44 4.8 30.6 0.00 0.00 0.00 56 1008.2
20260510010024 16 56 8.0 30.6 0.00 0.00 0.00 49 1007.2
20260510004522 21 5 9.7 30.6 0.00 0.00 0.00 34 1006.1
20260510003021 23 61 0.0 3.2 0.00 0.00 0.00 21 1004.4
20260510001520 22 76 0.0 0.0 0.00 0.00 0.00 21 1004.0
20260510000020 22 76 0.0 0.0 0.00 0.00 0.00 22 1003.8
20260509234533 23 61 0.0 0.0 0.00 0.00 0.00 22 1003.8
20260509233031 22 54 0.0 11.3 0.00 0.00 0.00 22 1003.6
20260509231517 23 93 0.0 8.0 0.00 0.00 0.00 22 1003.2
20260509230017 22 182 0.0 11.3 0.00 0.00 0.00 23 1003.3
20260509224518 22 113 0.0 12.9 0.00 0.00 0.00 22 1003.3
20260509223017 22 91 0.0 6.4 0.00 0.00 0.00 21 1003.1
20260509221516 22 103 0.0 8.0 0.00 0.00 0.00 23 1003.2
20260509220020 22 125 0.0 6.4 0.00 0.00 0.00 23 1003.0
20260509214514 22 84 0.0 9.7 0.00 0.00 0.00 22 1002.9
20260509213013 23 90 0.0 6.4 0.00 0.00 0.00 20 1002.8
20260509211511 22 51 0.0 8.0 0.00 0.00 0.00 23 1003.1
20260509210010 22 71 0.0 9.7 0.00 0.00 0.00 23 1003.3
20260509204509 22 49 0.0 3.2 0.00 0.00 0.00 22 1003.3
20260509203007 23 49 0.0 8.0 0.00 0.00 0.00 22 1003.5
20260509201505 22 82 0.0 6.4 0.00 0.00 0.00 22 1003.7
20260509200004 23 40 0.0 4.8 0.00 0.00 0.00 24 1003.9
20260509194501 23 67 0.0 9.7 0.00 0.00 0.00 24 1004.2
20260509193101 23 71 0.0 4.8 0.00 0.00 0.00 24 1004.3
20260509191559 23 94 0.0 4.8 0.00 0.00 0.00 24 1004.5
20260509190110 23 40 0.0 8.0 0.00 0.00 0.00 27 1004.6
20260509184605 23 40 0.0 3.2 0.00 0.00 0.00 24 1004.8
20260509183057 23 46 0.0 3.2 0.00 0.00 0.00 25 1005.0
20260509181556 24 5 0.0 17.7 0.00 0.00 0.00 21 1005.0
20260509174555 23 304 8.0 29.0 0.00 0.00 0.00 18 1005.2
20260509173100 23 248 9.7 24.1 0.00 0.00 0.00 18 1005.1
20260509171553 23 350 0.0 33.8 0.00 0.00 0.00 21 1005.5
20260509170100 23 251 1.6 17.7 0.00 0.00 0.00 18 1005.3
20260509164550 23 341 0.0 9.7 0.00 0.00 0.00 20 1005.4
20260509163057 22 69 0.0 0.0 0.00 0.00 0.00 20 1005.4
20260509161551 22 312 0.0 6.4 0.00 0.00 0.00 20 1005.6
20260509160039 21 342 0.0 4.8 0.00 0.00 0.00 20 1005.7
20260509154539 20 19 0.0 3.2 0.00 0.00 0.00 21 1005.7
20260509153037 20 254 1.6 14.5 0.00 0.00 0.00 22 1005.8
20260509151530 19 203 6.4 17.7 0.00 0.00 0.00 21 1006.0
20260509150026 18 333 1.6 17.7 0.00 0.00 0.00 25 1006.2
20260509144522 17 248 17.7 29.0 0.00 0.00 0.00 24 1006.2
20260509143020 15 252 17.7 27.4 0.00 0.00 0.00 32 1006.1
20260509141523 14 260 17.7 29.0 0.00 0.00 0.00 34 1006.0
20260509140015 13 265 3.2 17.7 0.00 0.00 0.00 38 1006.1
20260509134515 13 267 0.0 11.3 0.00 0.00 0.00 41 1006.2
20260509133013 12 259 1.6 9.7 0.00 0.00 0.00 43 1006.2
20260509131513 12 243 0.0 0.0 0.00 0.00 0.00 46 1006.2
20260509124510 10 279 0.0 0.0 0.00 0.00 0.00 54 1006.0
20260509123009 10 308 0.0 0.0 0.00 0.00 0.00 53 1005.7
20260509121509 11 308 0.0 0.0 0.00 0.00 0.00 50 1005.5
20260509120007 10 331 0.0 0.0 0.00 0.00 0.00 46 1005.4
20260509114519 10 333 0.0 0.0 0.00 0.00 0.00 47 1005.2
20260509113007 11 323 0.0 0.0 0.00 0.00 0.00 49 1005.0
20260509111507 11 323 0.0 0.0 0.00 0.00 0.00 47 1005.0
20260509110006 12 250 0.0 0.0 0.00 0.00 0.00 45 1004.8
20260509104505 13 250 0.0 0.0 0.00 0.00 0.00 42 1004.7
20260509103005 14 250 0.0 0.0 0.00 0.00 0.00 37 1004.7
20260509101506 14 251 0.0 0.0 0.00 0.00 0.00 37 1004.9
20260509100003 14 254 0.0 3.2 0.00 0.00 0.00 37 1005.0
20260509094604 13 243 0.0 14.5 0.00 0.00 0.00 38 1005.0
20260509093056 11 259 11.3 27.4 0.00 0.00 0.00 46 1005.0
20260509091558 8 317 0.0 0.0 0.00 0.00 0.00 70 1004.9
20260509084550 9 233 0.0 0.0 0.00 0.00 0.00 69 1004.7
20260509083052 9 233 0.0 0.0 0.00 0.00 0.00 67 1004.8
20260509081544 10 231 0.0 0.0 0.00 0.00 0.00 65 1004.8
20260509080056 10 255 0.0 0.0 0.00 0.00 0.00 64 1005.0
20260509074539 10 293 0.0 0.0 0.00 0.00 0.00 62 1005.1
20260509073032 10 293 0.0 0.0 0.00 0.00 0.00 63 1005.2
20260509071530 10 267 0.0 0.0 0.00 0.00 0.00 63 1005.4
20260509070035 11 195 0.0 0.0 0.00 0.00 0.00 63 1005.2